Find Starlink 4430

NORAD ID: 53485 Int'l Des: 2022-099 Owner: SPXS Country: US Constellation: starlink operational
LEOCIRCULARRETROGRADESSO

リアルタイム位置

3D地球を読み込み中...

Starlink 4430について

説明を読み込み中...

次回通過

Passes for default location (London). Set your location on the main map for personalized predictions.

高度履歴

Loading altitude history...

軌道要素

1 53485U 22099W 26130.07284686 .00000520 00000-0 40137-4 0 9996
2 53485 97.5115 250.5014 0000717 173.7190 186.4046 15.05646757205210
Epoch: May 10, 2026 • Age: 13 hours

現在のステータス

高度 552.6 km
速度 7.59 km/s
衛星直下点 27.91°N, 21.11°W
打ち上げ日 Aug 12, 2022
運用期間 3.7 years
タイプ internet

技術仕様

分類 Payload
質量 300.00 kg
乾燥質量 275.00 kg
総質量 300.00 kg
長さ 0.20 m
直径 2.80 m
スパン 9.00 m
形状 Box + pan
製造者 SPXS
バスタイプ Starlink
フェーズステータス In Orbit
所有者/国 SPXS/US

Most Searched